[[{"header":{"parameterUnit":"m.s-1","parameterCategory":1,"la1":30.2992,"la2":30.254,"lo1":-89.0895,"lo2":-89.0443,"dy":0.0025,"dx":0.0025,"nx":19,"ny":19,"refTime":"2026-03-19T09:00:00:Z","depth":0,"parameterNumber":2,"parameterNumberName":"U-component_of_WINDS"},"data":[0,0,0,4.9705,4.9711,4.998,4.9981,5.0342,5.0345,0,0,0,0,0,0,0,0,0,0,0,4.9635,4.9638,4.9705,4.9712,4.998,4.9981,5.0341,5.0345,0,0,0,0,0,0,0,0,0,0,0,4.9634,4.9637,4.964,4.9713,4.998,4.9982,5.034,5.0132,0,0,0,0,0,0,0,0,0,0,4.9867,4.9812,4.9636,4.9641,4.9714,4.998,4.9982,5.0121,5.0145,5.0226,0,5.0301,0,5.0329,5.037,5.0371,0,0,0,4.9705,4.9793,4.9856,4.9641,4.9717,4.998,4.9857,5.0134,5.0161,5.0257,5.0306,5.0319,5.0335,5.0372,5.0374,5.0865,5.0867,0,0,4.969,4.9689,4.9838,4.9874,4.9833,4.9849,4.9866,5.015,5.0204,5.0308,5.0327,5.0341,5.0375,5.0378,5.0862,5.0865,0,0,0,4.9652,4.9679,4.9735,4.986,4.9907,4.9857,4.9876,5.0191,5.0209,5.0331,5.0345,5.0377,5.0382,5.0859,5.0863,5.0989,0,0,0,4.9643,4.9657,4.9729,4.9731,4.9902,5.0052,4.9911,5.0189,5.0222,5.0343,5.0377,5.0385,5.0857,5.0862,5.0979,5.1049,0,0,0,4.9614,4.9653,4.9695,4.9731,4.9846,5.0048,5.0082,5.0196,5.0231,5.0372,5.0386,5.0855,5.0861,5.0971,5.1035,5.1175,0,0,0,4.9584,4.9806,4.9697,4.995,4.9844,5.0123,5.008,5.0289,5.0425,5.0379,5.0857,5.0863,5.0968,5.1026,5.1166,5.1291,5.1344,0,0,4.9864,4.984,4.9988,4.9899,5.0197,5.0082,5.0399,5.0526,5.0542,5.0756,5.0768,5.0982,5.1034,5.1173,5.1643,5.1685,0,0,0,5.0077,5.0183,5.0262,5.0391,5.0491,5.0582,5.066,5.0707,5.0888,5.0652,5.1072,5.1103,5.1184,5.1244,5.128,5.1349,5.0891,5.0891,5.089,5.0471,5.0476,5.0721,5.0758,5.0883,5.0959,5.1061,5.1136,5.1108,5.1207,5.127,5.1554,5.1625,5.1651,5.1723,5.1338,5.1339,5.1339,5.134,5.0879,5.103,5.0983,5.1203,5.1207,5.1393,5.1474,5.1447,5.162,5.1508,5.1581,5.1456,5.1697,5.176,5.1349,5.1348,5.1346,5.1345,5.1345,5.1137,5.1209,5.126,5.1443,5.1584,5.1614,5.178,5.1779,5.1779,5.1851,5.1915,5.1913,5.1909,5.1882,5.1883,5.1884,5.1885,5.1886,5.1886,5.1383,5.1436,5.1576,5.1699,5.1778,5.1884,5.196,5.2039,5.2126,5.2112,5.2112,5.2071,5.172,5.163,5.1902,5.1899,5.1897,5.1895,5.1894,5.1792,5.1698,5.1915,5.1994,5.2136,5.2273,5.2269,5.2429,5.2494,5.2575,5.2519,5.226,5.2236,5.2208,5.2133,5.2519,5.2519,5.2519,5.2519,5.2007,5.1994,5.2213,5.234,5.2464,5.248,5.2723,5.2783,5.2832,5.2872,5.2816,5.2718,5.2689,5.2682,5.2643,5.2574,5.3062,5.3063,5.3063,5.2257,5.2256,5.2463,5.2506,5.2616,5.271,5.2937,5.3084,5.3119,5.3085,5.2902,5.2879,5.272,5.2669,5.263,5.2571,5.2443,0,0]},{"header":{"parameterUnit":"m.s-1","parameterCategory":1,"la1":30.2992,"la2":30.254,"lo1":-89.0895,"lo2":-89.0443,"dy":0.0025,"dx":0.0025,"nx":19,"ny":19,"refTime":"2026-03-19T09:00:00:Z","depth":0,"parameterNumber":3,"parameterNumberName":"V-component_of_WINDS"},"data":[0,0,0,1.513,1.5131,1.5206,1.5206,1.5303,1.5303,0,0,0,0,0,0,0,0,0,0,0,1.511,1.511,1.513,1.5132,1.5206,1.5206,1.5302,1.5303,0,0,0,0,0,0,0,0,0,0,0,1.5109,1.511,1.5111,1.5132,1.5205,1.5206,1.5302,1.5245,0,0,0,0,0,0,0,0,0,0,1.5173,1.5157,1.511,1.5111,1.5132,1.5205,1.5206,1.5243,1.5249,1.527,0,1.529,0,1.5298,1.531,1.531,0,0,0,1.513,1.5152,1.517,1.5111,1.5133,1.5205,1.5172,1.5246,1.5253,1.5278,1.5291,1.5294,1.53,1.5311,1.5311,1.5436,1.5437,0,0,1.5126,1.5124,1.5165,1.5174,1.5164,1.5169,1.5174,1.525,1.5264,1.5291,1.5297,1.5301,1.5311,1.5312,1.5436,1.5436,0,0,0,1.5115,1.5122,1.5138,1.517,1.5184,1.5172,1.5177,1.5261,1.5266,1.5298,1.5302,1.5312,1.5313,1.5435,1.5436,1.5466,0,0,0,1.5113,1.5115,1.5136,1.5136,1.5182,1.5223,1.5186,1.5261,1.5269,1.5302,1.5312,1.5314,1.5434,1.5435,1.5463,1.548,0,0,0,1.5104,1.5114,1.5125,1.5135,1.5167,1.5222,1.5232,1.5263,1.5272,1.531,1.5314,1.5434,1.5435,1.5461,1.5477,1.5512,0,0,0,1.5095,1.5152,1.5126,1.5191,1.5166,1.524,1.5231,1.5286,1.5323,1.5312,1.5434,1.5436,1.5461,1.5475,1.551,1.5541,1.5554,0,0,1.5166,1.5161,1.5199,1.5178,1.5255,1.5229,1.5311,1.5346,1.5351,1.5407,1.541,1.5464,1.5477,1.5511,1.5627,1.5637,0,0,0,1.5221,1.5249,1.527,1.5304,1.5331,1.5356,1.5378,1.5391,1.5438,1.538,1.5486,1.5494,1.5514,1.5529,1.5538,1.5555,1.5443,1.5442,1.5442,1.532,1.5323,1.5386,1.5397,1.543,1.5451,1.5478,1.5498,1.5493,1.5517,1.5534,1.5604,1.5621,1.5628,1.5646,1.5551,1.5551,1.5551,1.5551,1.5424,1.5464,1.5452,1.5509,1.5511,1.5559,1.5581,1.5575,1.5619,1.5592,1.561,1.558,1.5639,1.5654,1.5553,1.5553,1.5553,1.5552,1.5552,1.549,1.5509,1.5522,1.557,1.5606,1.5614,1.5657,1.5657,1.5658,1.5676,1.5692,1.5692,1.5691,1.5683,1.5684,1.5684,1.5684,1.5684,1.5684,1.5552,1.5566,1.5602,1.5634,1.5654,1.5681,1.5701,1.5721,1.5743,1.574,1.574,1.5731,1.5644,1.5622,1.5688,1.5688,1.5687,1.5687,1.5686,1.5657,1.5633,1.5688,1.5709,1.5745,1.5779,1.5778,1.5818,1.5835,1.5855,1.5841,1.5777,1.5772,1.5765,1.5747,1.5841,1.5841,1.5841,1.5841,1.5712,1.5709,1.5764,1.5796,1.5827,1.5831,1.5892,1.5907,1.5918,1.5928,1.5914,1.589,1.5883,1.5882,1.5872,1.5855,1.5975,1.5975,1.5976,1.5776,1.5775,1.5828,1.5838,1.5866,1.5889,1.5945,1.5981,1.599,1.5981,1.5936,1.593,1.5891,1.5878,1.5869,1.5855,1.5824,0,0]}]]